This is the latest recevied weather packets stored in our database for station/object N7WSS. If no packets are shown the sender has not sent any weather packets the latest 10 day(s).
| Time | Temp. | Humidity | Pressure | Rain* | Wind** | Luminosity | Snow |
|---|---|---|---|---|---|---|---|
| 1788190223 | 26.11° C | 65% | 1015.5 hPa | 0 mm | - | - | - |
| 1788189919 | 25.56° C | 68% | 1015.9 hPa | 0 mm | - | - | - |
| 1788189614 | 24.44° C | 70% | 1016 hPa | 0 mm | - | - | - |
| 1788189314 | 24.44° C | 72% | 1016.1 hPa | 0 mm | - | - | - |
| 1788189013 | 24.44° C | 74% | 1016.2 hPa | 0 mm | - | - | - |
| 1788188709 | 23.89° C | 75% | 1016.1 hPa | 0 mm | - | - | - |
| 1788188404 | 23.89° C | 77% | 1016.2 hPa | 0 mm | - | - | - |
| 1788188099 | 23.33° C | 77% | 1016 hPa | 0 mm | - | - | - |
| 1788187795 | 23.33° C | 79% | 1016.1 hPa | 0 mm | - | - | - |
| 1788187490 | 22.78° C | 85% | 1016 hPa | 0 mm | - | - | - |
| 1788187185 | 21.67° C | 88% | 1015.7 hPa | 0 mm | - | - | - |
| 1788186880 | 21.67° C | 90% | 1015.6 hPa | 0 mm | - | - | - |
| 1788186576 | 21.11° C | 92% | 1015.5 hPa | 0 mm | - | - | - |
| 1788186273 | 21.11° C | 92% | 1015.6 hPa | 0 mm | - | - | - |
| 1788185972 | 21.11° C | 92% | 1015.4 hPa | 0 mm | - | - | - |
| 1788185666 | 20.56° C | 92% | 1015.5 hPa | 0 mm | - | - | - |
| 1788185361 | 20.56° C | 93% | 1015.6 hPa | 0 mm | - | - | - |
| 1788185056 | 20.56° C | 93% | 1015.5 hPa | 0 mm | - | - | - |
| 1788184755 | 20.56° C | 93% | 1015.5 hPa | 0 mm | - | - | - |
| 1788184455 | 20.56° C | 93% | 1015.6 hPa | 0 mm | - | - | - |
| 1788184155 | 20.56° C | 93% | 1015.6 hPa | 0 mm | - | - | - |
| 1788183851 | 20.56° C | 93% | 1015.5 hPa | 0 mm | - | - | - |
| 1788183550 | 20.56° C | 93% | 1015.7 hPa | 0 mm | - | - | - |
| 1788183245 | 20.56° C | 93% | 1015.4 hPa | 0 mm | - | - | - |
| 1788182940 | 20.56° C | 93% | 1015.6 hPa | 0 mm | - | - | - |
* Rain latest hour (hover to see other rain measurements)
** Current wind speed in m/s (hover to see current wind gust speed)